Time,TemperatureF,DewpointF,PressureIn,WindDirection,WindDirectionDegrees,WindSpeedMPH,WindSpeedGustMPH,Humidity,HourlyPrecipIn,Conditions,Clouds,dailyrainin,SoftwareType,DateUTC
2013-08-11 00:14:00,67.2,66.0,30.02,SE,140,0.0,0.0,95,0.00,,,0.00,weatherlink.com 1.10,2013-08-11 04:14:00,
2013-08-11 00:29:00,66.9,65.0,30.02,SE,139,0.0,0.0,94,0.00,,,0.00,weatherlink.com 1.10,2013-08-11 04:29:00,
2013-08-11 00:44:00,66.7,65.0,30.02,SE,140,0.0,0.0,95,0.00,,,0.00,weatherlink.com 1.10,2013-08-11 04:44:00,
2013-08-11 00:59:00,66.5,65.0,30.02,SE,140,0.0,0.0,96,0.00,,,0.00,weatherlink.com 1.10,2013-08-11 04:59:00,
2013-08-11 01:14:00,66.4,65.0,30.02,SE,140,0.0,0.0,96,0.00,,,0.00,weatherlink.com 1.10,2013-08-11 05:14:00,
2013-08-11 01:59:00,66.8,66.0,30.01,SE,140,0.0,0.0,97,0.00,,,0.00,weatherlink.com 1.10,2013-08-11 05:59:00,
2013-08-11 02:14:00,66.8,66.0,30.01,SE,139,0.0,0.0,97,0.00,,,0.00,weatherlink.com 1.10,2013-08-11 06:14:00,
2013-08-11 02:29:00,67.0,66.0,30.01,SE,140,0.0,0.0,97,0.00,,,0.00,weatherlink.com 1.10,2013-08-11 06:29:00,
2013-08-11 02:44:00,67.1,66.0,30.00,SE,139,0.0,0.0,97,0.00,,,0.00,weatherlink.com 1.10,2013-08-11 06:44:00,
2013-08-11 02:59:00,67.2,66.0,30.00,SE,139,0.0,0.0,97,0.00,,,0.00,weatherlink.com 1.10,2013-08-11 06:59:00,
2013-08-11 03:44:00,67.4,67.0,30.01,SE,140,0.0,0.0,97,0.00,,,0.00,weatherlink.com 1.10,2013-08-11 07:44:00,
2013-08-11 04:14:00,67.6,67.0,30.01,SE,140,0.0,0.0,97,0.00,,,0.00,weatherlink.com 1.10,2013-08-11 08:14:00,
2013-08-11 05:14:00,67.6,67.0,30.02,SE,140,0.0,0.0,97,0.00,,,0.00,weatherlink.com 1.10,2013-08-11 09:14:00,
2013-08-11 05:29:00,67.6,67.0,30.02,SE,140,0.0,0.0,97,0.00,,,0.00,weatherlink.com 1.10,2013-08-11 09:29:00,
2013-08-11 05:44:00,67.6,67.0,30.02,SE,140,0.0,0.0,97,0.00,,,0.00,weatherlink.com 1.10,2013-08-11 09:44:00,
2013-08-11 06:14:00,67.4,66.0,30.03,East,87,0.0,0.0,96,0.00,,,0.00,weatherlink.com 1.10,2013-08-11 10:14:00,
2013-08-11 06:29:00,67.3,67.0,30.03,East,87,0.0,0.0,97,0.00,,,0.00,weatherlink.com 1.10,2013-08-11 10:29:00,
2013-08-11 06:44:00,67.3,67.0,30.04,East,87,0.0,0.0,97,0.00,,,0.00,weatherlink.com 1.10,2013-08-11 10:44:00,
2013-08-11 06:59:00,67.4,67.0,30.04,East,87,0.0,0.0,97,0.00,,,0.00,weatherlink.com 1.10,2013-08-11 10:59:00,
2013-08-11 07:14:00,67.6,67.0,30.04,NNW,343,0.0,1.0,97,0.00,,,0.00,weatherlink.com 1.10,2013-08-11 11:14:00,
2013-08-11 07:29:00,67.9,67.0,30.04,North,8,0.0,1.0,96,0.00,,,0.00,weatherlink.com 1.10,2013-08-11 11:29:00,
2013-08-11 07:44:00,68.2,67.0,30.04,North,8,0.0,2.0,96,0.00,,,0.00,weatherlink.com 1.10,2013-08-11 11:44:00,
2013-08-11 07:59:00,68.6,67.0,30.05,North,8,0.0,2.0,95,0.00,,,0.00,weatherlink.com 1.10,2013-08-11 11:59:00,
2013-08-11 08:14:00,68.9,67.0,30.05,North,10,0.0,2.0,94,0.00,,,0.00,weatherlink.com 1.10,2013-08-11 12:14:00,
2013-08-11 08:30:00,69.2,67.0,30.05,NE,34,0.0,4.0,93,0.00,,,0.00,weatherlink.com 1.10,2013-08-11 12:30:00,
2013-08-11 08:45:00,69.7,68.0,30.05,NNE,19,0.0,2.0,93,0.00,,,0.00,weatherlink.com 1.10,2013-08-11 12:45:00,
2013-08-11 09:00:00,70.4,68.0,30.05,NE,44,2.0,3.0,91,0.00,,,0.00,weatherlink.com 1.10,2013-08-11 13:00:00,
2013-08-11 09:15:00,71.2,68.0,30.05,NE,37,0.0,2.0,90,0.00,,,0.00,weatherlink.com 1.10,2013-08-11 13:15:00,
2013-08-11 09:45:00,72.3,68.0,30.05,NE,39,0.0,1.0,87,0.00,,,0.00,weatherlink.com 1.10,2013-08-11 13:45:00,
2013-08-11 10:00:00,73.2,69.0,30.05,NE,39,0.0,2.0,86,0.00,,,0.00,weatherlink.com 1.10,2013-08-11 14:00:00,
2013-08-11 10:30:00,75.2,69.0,30.05,NNW,327,0.0,3.0,82,0.00,,,0.00,weatherlink.com 1.10,2013-08-11 14:30:00,
2013-08-11 10:45:00,76.5,71.0,30.05,NNE,21,0.0,3.0,83,0.00,,,0.00,weatherlink.com 1.10,2013-08-11 14:45:00,
2013-08-11 11:00:00,78.5,70.0,30.05,SE,140,0.0,9.0,76,0.00,,,0.00,weatherlink.com 1.10,2013-08-11 15:00:00,
2013-08-11 11:15:00,79.7,70.0,30.04,SE,135,2.0,7.0,71,0.00,,,0.00,weatherlink.com 1.10,2013-08-11 15:15:00,
2013-08-11 11:30:00,80.6,67.0,30.04,South,170,4.0,6.0,64,0.00,,,0.00,weatherlink.com 1.10,2013-08-11 15:30:00,
2013-08-11 12:00:00,81.7,68.0,30.02,NNE,20,0.0,6.0,63,0.00,,,0.00,weatherlink.com 1.10,2013-08-11 16:00:00,
2013-08-11 12:15:00,81.5,66.0,30.02,ENE,70,1.0,8.0,60,0.00,,,0.00,weatherlink.com 1.10,2013-08-11 16:15:00,
2013-08-11 12:30:00,82.3,69.0,30.02,SSE,147,3.0,5.0,65,0.00,,,0.00,weatherlink.com 1.10,2013-08-11 16:30:00,
2013-08-11 12:45:00,81.5,68.0,30.01,WSW,241,0.0,5.0,63,0.00,,,0.00,weatherlink.com 1.10,2013-08-11 16:45:00,
2013-08-11 13:15:00,82.4,69.0,30.00,SE,139,6.0,9.0,64,0.00,,,0.00,weatherlink.com 1.10,2013-08-11 17:15:00,
2013-08-11 13:30:00,82.5,69.0,30.00,SE,129,7.0,7.0,64,0.00,,,0.00,weatherlink.com 1.10,2013-08-11 17:30:00,
2013-08-11 14:00:00,83.7,68.0,29.99,SE,125,7.0,10.0,60,0.00,,,0.00,weatherlink.com 1.10,2013-08-11 18:00:00,
2013-08-11 14:15:00,82.5,68.0,29.99,ENE,58,2.0,8.0,62,0.00,,,0.00,weatherlink.com 1.10,2013-08-11 18:15:00,
2013-08-11 14:31:00,83.0,69.0,29.98,SE,136,2.0,9.0,63,0.00,,,0.00,weatherlink.com 1.10,2013-08-11 18:31:00,
2013-08-11 15:01:00,83.2,68.0,29.98,East,96,2.0,8.0,60,0.00,,,0.00,weatherlink.com 1.10,2013-08-11 19:01:00,
2013-08-11 15:16:00,83.7,69.0,29.97,ESE,119,4.0,9.0,61,0.00,,,0.00,weatherlink.com 1.10,2013-08-11 19:16:00,
2013-08-11 15:31:00,83.6,68.0,29.97,ESE,104,5.0,10.0,60,0.00,,,0.00,weatherlink.com 1.10,2013-08-11 19:31:00,
2013-08-11 15:46:00,84.1,69.0,29.97,SW,225,4.0,6.0,61,0.00,,,0.00,weatherlink.com 1.10,2013-08-11 19:46:00,
2013-08-11 16:01:00,83.9,69.0,29.96,NE,54,4.0,9.0,62,0.00,,,0.00,weatherlink.com 1.10,2013-08-11 20:01:00,
2013-08-11 16:31:00,84.2,68.0,29.95,SSE,150,3.0,10.0,59,0.00,,,0.00,weatherlink.com 1.10,2013-08-11 20:31:00,
2013-08-11 16:46:00,83.9,68.0,29.95,East,85,4.0,8.0,59,0.00,,,0.00,weatherlink.com 1.10,2013-08-11 20:46:00,
2013-08-11 17:01:00,84.1,69.0,29.95,ESE,106,8.0,10.0,60,0.00,,,0.00,weatherlink.com 1.10,2013-08-11 21:01:00,
2013-08-11 17:16:00,82.9,68.0,29.95,ESE,115,4.0,8.0,61,0.00,,,0.00,weatherlink.com 1.10,2013-08-11 21:16:00,
2013-08-11 17:31:00,81.9,69.0,29.95,South,185,6.0,9.0,64,0.00,,,0.00,weatherlink.com 1.10,2013-08-11 21:31:00,
2013-08-11 18:01:00,81.2,70.0,29.95,SE,131,5.0,7.0,69,0.00,,,0.00,weatherlink.com 1.10,2013-08-11 22:01:00,
2013-08-11 18:16:00,80.6,70.0,29.94,SE,129,3.0,6.0,70,0.00,,,0.00,weatherlink.com 1.10,2013-08-11 22:16:00,
2013-08-11 18:31:00,80.2,70.0,29.94,ESE,110,4.0,8.0,72,0.00,,,0.00,weatherlink.com 1.10,2013-08-11 22:31:00,
2013-08-11 18:46:00,79.9,71.0,29.93,ESE,115,5.0,7.0,73,0.00,,,0.00,weatherlink.com 1.10,2013-08-11 22:46:00,
2013-08-11 19:01:00,79.6,71.0,29.93,SSE,159,2.0,7.0,74,0.00,,,0.00,weatherlink.com 1.10,2013-08-11 23:01:00,
2013-08-11 19:16:00,79.2,71.0,29.95,ESE,117,2.0,3.0,75,0.00,,,0.00,weatherlink.com 1.10,2013-08-11 23:16:00,
2013-08-11 19:31:00,78.8,71.0,29.94,SE,135,2.0,4.0,76,0.00,,,0.00,weatherlink.com 1.10,2013-08-11 23:31:00,
2013-08-11 19:46:00,78.4,70.0,29.94,SE,140,2.0,4.0,76,0.00,,,0.00,weatherlink.com 1.10,2013-08-11 23:46:00,
2013-08-11 20:01:00,77.9,71.0,29.95,WSW,245,0.0,2.0,79,0.00,,,0.00,weatherlink.com 1.10,2013-08-12 00:01:00,
2013-08-11 20:31:00,76.9,71.0,29.95,SE,126,0.0,2.0,81,0.00,,,0.00,weatherlink.com 1.10,2013-08-12 00:31:00,
2013-08-11 21:01:00,75.7,70.0,29.95,SE,139,0.0,2.0,83,0.00,,,0.00,weatherlink.com 1.10,2013-08-12 01:01:00,
2013-08-11 21:31:00,74.4,70.0,29.96,SE,130,0.0,0.0,86,0.00,,,0.00,weatherlink.com 1.10,2013-08-12 01:31:00,
2013-08-11 21:46:00,73.7,70.0,29.96,SE,130,0.0,0.0,87,0.00,,,0.00,weatherlink.com 1.10,2013-08-12 01:46:00,
2013-08-11 22:01:00,72.8,70.0,29.96,SE,130,0.0,0.0,89,0.00,,,0.00,weatherlink.com 1.10,2013-08-12 02:01:00,
2013-08-11 22:16:00,72.2,69.0,29.96,SE,130,0.0,0.0,90,0.00,,,0.00,weatherlink.com 1.10,2013-08-12 02:16:00,
2013-08-11 22:31:00,71.5,69.0,29.96,SE,130,0.0,0.0,92,0.00,,,0.00,weatherlink.com 1.10,2013-08-12 02:31:00,
2013-08-11 22:46:00,71.0,69.0,29.95,SE,130,0.0,0.0,92,0.00,,,0.00,weatherlink.com 1.10,2013-08-12 02:46:00,
2013-08-11 23:01:00,70.6,69.0,29.95,SE,130,0.0,0.0,93,0.00,,,0.00,weatherlink.com 1.10,2013-08-12 03:01:00,
2013-08-11 23:31:00,70.1,69.0,29.95,SE,130,0.0,0.0,95,0.00,,,0.00,weatherlink.com 1.10,2013-08-12 03:31:00,